This is the latest recevied weather packets stored in our database for station/object W6TKD-13. If no packets are shown the sender has not sent any weather packets the latest 10 day(s).
| Time | Temp. | Humidity | Pressure | Rain* | Wind** | Luminosity | Snow |
|---|---|---|---|---|---|---|---|
| 1777483068 | 32.78° C | 39% | 1017.4 hPa | 0 mm | - | - | - |
| 1777482401 | 32.22° C | 40% | 1017.5 hPa | 0 mm | - | - | - |
| 1777481735 | 31.67° C | 41% | 1017.7 hPa | 0 mm | - | - | - |
| 1777481067 | 31.11° C | 42% | 1017.9 hPa | 0 mm | - | - | - |
| 1777480400 | 30° C | 45% | 1018 hPa | 0 mm | - | - | - |
| 1777479733 | 27.78° C | 48% | 1018 hPa | 0 mm | - | - | - |
| 1777479066 | 25° C | 51% | 1018.1 hPa | 0 mm | - | - | - |
| 1777478399 | 21.11° C | 57% | 1018.2 hPa | 0 mm | - | - | - |
| 1777477733 | 15.56° C | 62% | 1018.5 hPa | 0 mm | - | - | - |
| 1777477065 | 11.67° C | 62% | 1018.7 hPa | 0 mm | - | - | - |
| 1777476398 | 10.56° C | 62% | 1018.8 hPa | 0 mm | - | - | - |
| 1777475731 | 9.44° C | 62% | 1018.8 hPa | 0 mm | - | - | - |
| 1777475064 | 8.89° C | 62% | 1018.8 hPa | 0 mm | - | - | - |
| 1777474397 | 8.33° C | 62% | 1018.9 hPa | 0 mm | - | - | - |
| 1777473731 | 7.22° C | 61% | 1018.9 hPa | 0 mm | - | - | - |
| 1777473064 | 6.67° C | 61% | 1018.9 hPa | 0 mm | - | - | - |
| 1777471730 | 6.11° C | 60% | 1019 hPa | 0 mm | - | - | - |
| 1777471064 | 5.56° C | 60% | 1018.9 hPa | 0 mm | - | - | - |
| 1777470395 | 5.56° C | 59% | 1018.9 hPa | 0 mm | - | - | - |
| 1777469728 | 5.56° C | 59% | 1018.9 hPa | 0 mm | - | - | - |
| 1777469061 | 5.56° C | 59% | 1018.9 hPa | 0 mm | - | - | - |
| 1777468394 | 5.56° C | 59% | 1018.9 hPa | 0 mm | - | - | - |
| 1777467060 | 5.56° C | 59% | 1018.9 hPa | 0 mm | - | - | - |
| 1777466394 | 5.56° C | 59% | 1018.9 hPa | 0 mm | - | - | - |
| 1777465728 | 5.56° C | 58% | 1018.8 hPa | 0 mm | - | - | - |
* Rain since midnight (hover to see other rain measurements)
** Current wind speed in m/s (hover to see current wind gust speed)